sat.trackr.live / text

‹ back to catalog

STARLINK-3363

NORAD 51135 · 2022-005AH

PAYLOAD ACTIVE UNKNOWN

§ Identity

Operator
Country
US
Launch date
2022-01-19
Launch site
AFETR
Launch vehicle
Mass (kg)
RCS (m²)

Purposes: comms

External: N2YO · Heavens-Above · Gunter

§ Orbital elements

Epoch: 2026-05-24T18:15:56.103264Z

Period
95.44 min
Inclination
53.2141°
Eccentricity
0.0001670
Mean motion
15.08868152 rev/d
Perigee alt
538.5 km
Apogee alt
540.8 km
Semi-major
6,917.8 km
B*
-3.8971e-4
RAAN
317.5177°
Arg perigee
89.9591°
Mean anomaly
270.1592°
Rev number
24,021

§ Raw data

STARLINK-33631 51135U 22005AH  26144.76106601 -.00006490  00000+0 -38971-3 0  99992 51135  53.2141 317.5177 0001670  89.9591 270.1592 15.08868152240218

JSON: /api/v1/satellites/51135 · /tle

For live sub-satellite position, see the globe view (requires WebGL).

§ Visibility from observer

Set your observer location to see the next 7 days of passes ≥ 10°. The values pass through the URL so the page stays shareable.

No JS? Fill the form by hand. The geolocation button needs JavaScript.